DB0GZX-6 Alfeld DE current weather conditions

sailwx.info

Wind from 111 at 1 knots gusting 2

Air temperature 11.1° C
Dewpoint 5.2° C

Last reported at 2017-Mar-30 03:49 UTC.
Time now 2017-Mar-30 04:55 UTC

Location: N 51°58' E 009°50'.
View on Google Maps.

See reports from other nearby stations

  
Tides and Currents Weather Stations Pressure Air Temp Water Temp Dewpoint Dewpoint Depression Visibility Wind Speed Wind Dir Waves Ship Positions
date/time (UTC)wind fromknots sea level pressurealtimeterstation pressurevisibilityair tempwater tempwave heightnotes
2017-Mar-30 03:49 111 1 gusting 2 11.1
2017-Mar-30 03:39 107 1 gusting 2 11.1
2017-Mar-30 03:29 106 1 gusting 2 11.1
2017-Mar-30 03:19 106 1 gusting 2 11.1
2017-Mar-30 03:09 106 1 gusting 4 11.1
2017-Mar-30 02:59 143 1 gusting 2 11.1
2017-Mar-30 02:49 143 11.1
2017-Mar-30 02:39 143 1 gusting 4 11.1
2017-Mar-30 02:29 136 1 gusting 2 11.1
2017-Mar-30 02:19 182 11.1
2017-Mar-30 02:09 182 2 gusting 2 11.1
2017-Mar-30 01:59 182 11.1
2017-Mar-30 01:49 181 1 gusting 2 11.1
2017-Mar-30 01:39 110 2 gusting 4 11.1
2017-Mar-30 01:29 116 1 gusting 4 11.1
2017-Mar-30 01:19 109 1 gusting 2 11.1
2017-Mar-30 01:09 109 0 gusting 5 11.1
2017-Mar-30 00:59 104 1 gusting 2 11.1
2017-Mar-30 00:49 104 11.1
2017-Mar-30 00:39 104 2 gusting 4 11.1
2017-Mar-30 00:29 106 1 gusting 2 11.1
2017-Mar-30 00:19 105 1 gusting 5 11.1
2017-Mar-30 00:09 106 2 gusting 5 11.1
2017-Mar-29 23:59 111 1 gusting 2 11.1
2017-Mar-29 23:49 118 2 gusting 4 11.7
2017-Mar-29 23:39 284 1 gusting 2 11.7
2017-Mar-29 23:29 284 1 gusting 2 11.7
2017-Mar-29 23:19 284 11.7
2017-Mar-29 23:09 284 2 gusting 4 11.7
2017-Mar-29 22:59 284 1 gusting 4 11.7
2017-Mar-29 22:49 277 2 gusting 6 11.7
2017-Mar-29 22:39 281 1 gusting 4 12.2
2017-Mar-29 22:29 290 2 gusting 6 12.2
2017-Mar-29 22:19 264 1 gusting 4 12.2
2017-Mar-29 22:09 266 2 gusting 6 12.2
2017-Mar-29 21:59 286 2 gusting 6 12.2
2017-Mar-29 21:49 290 2 gusting 5 12.2
2017-Mar-29 21:39 304 1 gusting 2 12.2
2017-Mar-29 21:29 304 0 gusting 6 12.2
2017-Mar-29 21:19 264 12.2
2017-Mar-29 21:09 264 0 gusting 4 12.2
2017-Mar-29 20:59 281 0 gusting 2 12.2
2017-Mar-29 20:49 284 1 gusting 6 12.2
2017-Mar-29 20:39 283 1 gusting 10 12.2
2017-Mar-29 20:29 304 2 gusting 6 12.2
2017-Mar-29 20:19 256 2 gusting 6 12.2
2017-Mar-29 20:09 288 0 gusting 5 12.8
2017-Mar-29 19:59 290 3 gusting 6 12.8
2017-Mar-29 19:49 256 3 gusting 10 12.8
2017-Mar-29 19:39 298 4 gusting 7 12.8
2017-Mar-29 19:29 248 2 gusting 6 12.8
2017-Mar-29 19:19 272 2 gusting 6 12.8
2017-Mar-29 19:09 290 4 gusting 6 12.8
2017-Mar-29 18:59 262 2 gusting 5 12.8
2017-Mar-29 18:49 270 1 gusting 7 12.8
2017-Mar-29 18:39 268 2 gusting 5 12.8
2017-Mar-29 18:29 286 3 gusting 6 12.8
2017-Mar-29 18:19 251 1 gusting 4 12.8
2017-Mar-29 18:09 295 2 gusting 7 12.8
2017-Mar-29 17:59 283 2 gusting 5 12.8
2017-Mar-29 17:49 304 2 gusting 10 12.8
2017-Mar-29 17:39 305 1 gusting 7 13.3
2017-Mar-29 17:29 307 5 gusting 13 13.3
2017-Mar-29 17:19 276 2 gusting 11 13.3
2017-Mar-29 17:09 281 5 gusting 10 13.3
2017-Mar-29 16:59 241 4 gusting 10 13.3
2017-Mar-29 16:49 293 3 gusting 7 13.3
2017-Mar-29 16:39 274 4 gusting 8 13.3
2017-Mar-29 16:29 296 6 gusting 10 13.3
2017-Mar-29 16:19 262 6 gusting 12 13.3
2017-Mar-29 16:09 276 7 gusting 13 13.3
2017-Mar-29 15:59 275 5 gusting 10 13.3
2017-Mar-29 15:49 271 6 gusting 12 13.9
2017-Mar-29 15:39 288 4 gusting 10 13.9
2017-Mar-29 15:29 257 2 gusting 6 13.9
2017-Mar-29 15:19 293 4 gusting 8 13.9
2017-Mar-29 15:09 248 5 gusting 13 13.9
2017-Mar-29 14:59 286 6 gusting 17 13.9
2017-Mar-29 14:49 238 4 gusting 12 13.9
2017-Mar-29 14:39 257 5 gusting 13 13.9
2017-Mar-29 14:29 265 4 gusting 10 13.9
2017-Mar-29 14:19 285 4 gusting 10 13.9
2017-Mar-29 14:09 237 4 gusting 11 13.9
2017-Mar-29 13:59 281 5 gusting 10 13.9
2017-Mar-29 13:49 263 6 gusting 13 14.4
2017-Mar-29 13:39 285 5 gusting 13 14.4
2017-Mar-29 13:29 262 2 gusting 10 14.4
2017-Mar-29 13:19 255 5 gusting 10 14.4
2017-Mar-29 13:09 210 6 gusting 19 14.4
2017-Mar-29 12:59 259 6 gusting 13 14.4
2017-Mar-29 12:49 294 4 gusting 11 14.4
2017-Mar-29 12:39 269 5 gusting 12 14.4
2017-Mar-29 12:29 267 2 gusting 12 14.4
2017-Mar-29 12:19 223 5 gusting 13 14.4
2017-Mar-29 12:09 286 7 gusting 17 14.4
2017-Mar-29 11:59 290 4 gusting 10 14.4
2017-Mar-29 11:49 281 6 gusting 14 14.4
2017-Mar-29 11:39 247 6 gusting 12 14.4
2017-Mar-29 11:29 245 4 gusting 12 14.4
2017-Mar-29 11:19 270 6 gusting 17 14.4
2017-Mar-29 11:09 289 6 gusting 12 13.9
2017-Mar-29 10:59 223 3 gusting 12 13.9
2017-Mar-29 10:49 264 4 gusting 13 13.9
2017-Mar-29 10:39 259 7 gusting 14 13.9
2017-Mar-29 10:29 256 6 gusting 14 13.9
2017-Mar-29 10:19 225 5 gusting 10 13.9
2017-Mar-29 10:09 301 6 gusting 11 13.9
2017-Mar-29 09:59 300 6 gusting 11 13.9
2017-Mar-29 09:49 253 1 gusting 11 13.9
2017-Mar-29 09:39 272 4 gusting 12 13.3
2017-Mar-29 09:29 274 6 gusting 15 13.3
2017-Mar-29 09:19 249 6 gusting 12 13.3
2017-Mar-29 09:09 276 4 gusting 12 13.3
2017-Mar-29 08:59 273 4 gusting 10 13.3
2017-Mar-29 08:49 310 4 gusting 10 12.8
2017-Mar-29 08:39 225 4 gusting 10 12.8
2017-Mar-29 08:29 239 1 gusting 10 12.8
2017-Mar-29 08:19 245 2 gusting 8 12.2
2017-Mar-29 08:09 257 2 gusting 5 12.2
2017-Mar-29 07:59 225 3 gusting 6 12.2
2017-Mar-29 07:49 240 2 gusting 7 12.2
2017-Mar-29 07:39 198 2 gusting 10 12.2
2017-Mar-29 07:29 243 4 gusting 8 12.2
2017-Mar-29 07:19 246 3 gusting 10 11.7
2017-Mar-29 07:09 255 1 gusting 10 11.7
2017-Mar-29 06:59 253 2 gusting 8 11.1
2017-Mar-29 06:49 234 2 gusting 7 11.1
2017-Mar-29 06:39 252 4 gusting 11 11.1
2017-Mar-29 06:29 257 5 gusting 11 10.6
2017-Mar-29 06:19 258 1 gusting 8 10.6
2017-Mar-29 06:09 248 4 gusting 7 10.6
2017-Mar-29 05:59 242 4 gusting 10 10.6
2017-Mar-29 05:49 239 4 gusting 8 10.6
2017-Mar-29 05:39 262 5 gusting 13 10.6
2017-Mar-29 05:29 263 5 gusting 12 10.6
2017-Mar-29 05:19 257 5 gusting 8 10.0
2017-Mar-29 05:09 245 2 gusting 8 10.0
2017-Mar-29 04:59 257 2 gusting 5 10.0
2017-Mar-29 04:49 255 2 gusting 10 10.6
2017-Mar-29 04:39 273 2 gusting 6 10.6
2017-Mar-29 04:29 260 3 gusting 7 10.6
2017-Mar-29 04:19 265 5 gusting 12 10.6
2017-Mar-29 04:09 258 4 gusting 13 10.6
2017-Mar-29 03:59 261 1 gusting 2 10.6
2017-Mar-29 03:49 216 2 gusting 4 10.6
2017-Mar-29 03:39 219 2 gusting 11 10.6
2017-Mar-29 03:29 269 2 gusting 8 10.6
2017-Mar-29 03:19 256 4 gusting 10 10.6
2017-Mar-29 03:09 276 2 gusting 8 10.0
2017-Mar-29 02:59 266 4 gusting 13 10.0
2017-Mar-29 02:49 278 4 gusting 11 10.0
2017-Mar-29 02:39 264 1 gusting 2 10.0
2017-Mar-29 02:29 279 2 gusting 4 10.0
2017-Mar-29 02:19 279 10.0
2017-Mar-29 02:10 279 1 gusting 5 10.0
2017-Mar-29 01:59 297 1 gusting 6 10.0
2017-Mar-29 01:49 229 1 gusting 2 9.4
2017-Mar-29 01:39 226 1 gusting 6 9.4
2017-Mar-29 01:29 246 2 gusting 6 8.9
2017-Mar-29 01:19 241 1 gusting 7 8.3
2017-Mar-29 01:09 150 8.3
2017-Mar-29 00:59 150 0 gusting 2 8.3
2017-Mar-29 00:49 150 0 gusting 2 8.9
2017-Mar-29 00:39 150 1 gusting 4 8.9
2017-Mar-29 00:29 138 1 gusting 5 8.9
2017-Mar-29 00:19 153 1 gusting 2 8.9
2017-Mar-29 00:09 153 1 gusting 2 8.9
2017-Mar-28 23:59 153 2 gusting 4 8.9
2017-Mar-28 23:49 138 9.4
2017-Mar-28 23:39 138 0 gusting 2 9.4
2017-Mar-28 23:29 138 1 gusting 2 9.4
2017-Mar-28 23:19 138 0 gusting 2 10.0
2017-Mar-28 23:09 138 0 gusting 2 10.0
2017-Mar-28 22:59 138 1 gusting 2 10.0
2017-Mar-28 22:49 139 1 gusting 2 10.0
2017-Mar-28 22:39 140 1 gusting 2 10.0
2017-Mar-28 22:29 142 1 gusting 2 10.6
2017-Mar-28 22:19 145 1 gusting 2 10.6
2017-Mar-28 22:09 145 1 gusting 2 10.6
2017-Mar-28 21:59 145 2 gusting 4 11.1
2017-Mar-28 21:49 153 1 gusting 2 11.1
2017-Mar-28 21:39 165 1 gusting 2 11.1
2017-Mar-28 21:29 283 1 gusting 2 11.1
2017-Mar-28 21:19 284 0 gusting 1 11.7
2017-Mar-28 21:09 284 1 gusting 2 11.7
2017-Mar-28 20:59 284 1 gusting 2 11.7
2017-Mar-28 20:49 284 1 gusting 2 12.2
2017-Mar-28 20:39 284 1 gusting 2 12.2
2017-Mar-28 20:29 284 1 gusting 2 12.2
2017-Mar-28 20:19 284 0 gusting 2 12.8
2017-Mar-28 20:09 284 1 gusting 2 12.8
2017-Mar-28 19:59 284 12.8
2017-Mar-28 19:49 284 13.3
2017-Mar-28 19:39 284 0 gusting 1 13.3
2017-Mar-28 19:29 284 0 gusting 1 13.3
2017-Mar-28 19:19 284 13.9
2017-Mar-28 19:09 284 14.4
2017-Mar-28 18:59 284 14.4
2017-Mar-28 18:49 284 15.0
2017-Mar-28 18:39 284 0 gusting 2 15.6
2017-Mar-28 18:29 284 1 gusting 2 16.1
2017-Mar-28 18:19 284 16.7
2017-Mar-28 18:09 284 0 gusting 4 17.2
2017-Mar-28 17:59 284 1 gusting 5 17.2
2017-Mar-28 17:49 271 2 gusting 6 17.8
2017-Mar-28 17:39 279 4 gusting 8 17.8
2017-Mar-28 17:29 304 3 gusting 10 18.3
2017-Mar-28 17:19 279 2 gusting 5 18.3
2017-Mar-28 17:09 263 2 gusting 10 18.9
2017-Mar-28 16:59 271 4 gusting 10 18.9
2017-Mar-28 16:49 294 7 gusting 12 19.4
2017-Mar-28 16:39 300 5 gusting 11 20.0
2017-Mar-28 16:29 288 6 gusting 12 20.6
2017-Mar-28 16:19 292 5 gusting 13 20.6
2017-Mar-28 16:09 292 7 gusting 13 20.6
2017-Mar-28 15:59 288 6 gusting 13 21.1
2017-Mar-28 15:49 285 3 gusting 10 21.1
2017-Mar-28 15:39 295 5 gusting 8 21.7
2017-Mar-28 15:29 296 6 gusting 12 21.7
2017-Mar-28 15:19 284 4 gusting 11 21.7
2017-Mar-28 15:09 302 5 gusting 11 21.7
2017-Mar-28 14:59 299 5 gusting 12 21.7
2017-Mar-28 14:49 289 5 gusting 11 21.7
2017-Mar-28 14:39 288 5 gusting 13 21.7
2017-Mar-28 14:29 296 6 gusting 12 22.2
2017-Mar-28 14:19 285 1 gusting 7 22.8
2017-Mar-28 14:09 221 0 gusting 6 22.8
2017-Mar-28 13:59 168 3 gusting 6 22.2
2017-Mar-28 13:49 254 4 gusting 10 22.2
2017-Mar-28 13:39 178 1 gusting 8 22.2
2017-Mar-28 13:29 220 3 gusting 10 22.2
2017-Mar-28 13:19 263 2 gusting 10 22.2
2017-Mar-28 13:09 251 6 gusting 12 21.7
2017-Mar-28 12:59 253 4 gusting 10 21.7
2017-Mar-28 12:49 290 6 gusting 10 21.7
2017-Mar-28 12:39 262 5 gusting 14 22.2
2017-Mar-28 12:29 249 4 gusting 10 22.2
2017-Mar-28 12:19 251 5 gusting 10 22.2
2017-Mar-28 12:09 297 6 gusting 11 22.2
2017-Mar-28 11:59 169 4 gusting 7 22.2
2017-Mar-28 11:49 197 4 gusting 8 21.7
2017-Mar-28 11:39 183 3 gusting 10 21.7
2017-Mar-28 11:29 182 3 gusting 8 21.1
2017-Mar-28 11:19 178 4 gusting 7 20.6
2017-Mar-28 11:09 175 4 gusting 11 20.6
2017-Mar-28 10:59 133 7 gusting 11 20.0
2017-Mar-28 10:49 155 6 gusting 10 20.0
2017-Mar-28 10:39 143 6 gusting 10 20.0
2017-Mar-28 10:29 140 5 gusting 6 19.4
2017-Mar-28 10:19 158 4 gusting 7 18.9
2017-Mar-28 10:09 135 5 gusting 7 18.9
2017-Mar-28 09:59 123 3 gusting 6 18.3
2017-Mar-28 09:49 144 3 gusting 6 17.8
2017-Mar-28 09:39 171 4 gusting 5 17.2
2017-Mar-28 09:29 155 4 gusting 6 16.7
2017-Mar-28 09:19 155 4 gusting 6 16.1
2017-Mar-28 09:09 165 5 gusting 7 16.1
2017-Mar-28 08:59 151 5 gusting 6 15.0
2017-Mar-28 08:49 151 5 gusting 7 14.4
2017-Mar-28 08:39 135 2 gusting 6 13.9
2017-Mar-28 08:29 151 4 gusting 6 12.8
2017-Mar-28 08:19 153 5 gusting 6 12.2
2017-Mar-28 08:09 154 4 gusting 5 11.1
2017-Mar-28 07:59 159 2 gusting 5 10.0
2017-Mar-28 07:49 158 3 gusting 6 8.9
2017-Mar-28 07:39 155 4 gusting 5 7.8
2017-Mar-28 07:29 152 2 gusting 5 6.7
2017-Mar-28 07:19 152 4 gusting 5 5.6
2017-Mar-28 07:09 149 1 gusting 4 5.0
2017-Mar-28 06:59 149 1 gusting 2 4.4
2017-Mar-28 06:49 149 1 gusting 2 3.9
2017-Mar-28 06:39 149 2 gusting 2 3.3
2017-Mar-28 06:29 149 1 gusting 2 2.8
2017-Mar-28 06:19 149 1 gusting 2 2.8
2017-Mar-28 06:09 148 2 gusting 2 2.8
2017-Mar-28 05:59 148 2.8
2017-Mar-28 05:49 148 1 gusting 2 2.8
2017-Mar-28 05:39 148 1 gusting 2 2.8
2017-Mar-28 05:29 148 0 gusting 2 2.8
2017-Mar-28 05:19 148 0 gusting 2 2.8
2017-Mar-28 05:09 148 2 gusting 4 2.8
2017-Mar-28 04:59 147 1 gusting 2 2.8
2017-Mar-28 04:49 146 2 gusting 4 2.8
2017-Mar-28 04:39 145 2 gusting 4 3.3
2017-Mar-28 04:29 144 2 gusting 5 3.3
2017-Mar-28 04:19 141 4 gusting 6 3.3
2017-Mar-28 04:09 148 4 gusting 5 3.3